This demonstration page uses our WeatherBlox Daily Observations layout. Learn more.

Left ArrowRight Arrow

34.16533, -84.80231

Hourly Observations for July 18, 2016

Temp ( °F °C ) Dew Point ( °F °C ) Humidity (%) Winds ( mph kmh ) Pressure ( in mb ) Visibility ( mi km ) Precip ( " mm )
12:53 am 00:53 Partly Cloudy 76 24.4 72 22.2 88 88 N 3 6 30.20 1023 10 16 0.00 0.00
1:53 am 01:53 Clear 74 23.3 72 22.2 94 94 Calm 30.18 1022 10 16 0.00 0.00
2:53 am 02:53 Clear 74 23.3 71 21.7 91 91 Calm 30.17 1022 10 16 0.00 0.00
3:53 am 03:53 Clear 72 22.2 71 21.7 97 97 Calm 30.16 1021 10 16 0.00 0.00
4:53 am 04:53 Clear 71 21.7 70 21.1 96 96 Calm 30.18 1022 10 16 0.00 0.00
5:53 am 05:53 Clear 71 21.7 70 21.1 96 96 SE 3 6 30.18 1022 10 16 0.00 0.00
6:53 am 06:53 Sunny 72 22.2 70 21.1 94 94 Calm 30.20 1023 10 16 0.00 0.00
7:53 am 07:53 Sunny 74 23.3 71 21.7 91 91 Calm 30.22 1023 10 16 0.00 0.00
8:53 am 08:53 Sunny 78 25.6 71 21.7 79 79 Calm 30.24 1024 10 16 0.00 0.00
9:53 am 09:53 Sunny 82 27.8 73 22.8 74 74 N 5 7 30.25 1025 10 16 0.00 0.00
10:53 am 10:53 Sunny 85 29.4 72 22.2 65 65 VRB 5 7 30.25 1024 10 16 0.00 0.00
11:53 am 11:53 Sunny 87 30.6 72 22.2 61 61 VRB 5 7 30.25 1024 10 16 0.00 0.00
12:53 pm 12:53 Sunny 88 31.1 70 21.1 55 55 VRB 3 6 30.24 1024 10 16 0.00 0.00
1:53 pm 13:53 Sunny 90 32.2 70 21.1 52 52 Calm 30.21 1023 10 16 0.00 0.00
2:53 pm 14:53 Sunny 91 32.8 71 21.7 52 52 S 8 13 30.18 1022 10 16 0.00 0.00
3:53 pm 15:53 Sunny 88 31.1 71 21.7 57 57 N 3 6 30.17 1022 10 16 0.00 0.00
4:53 pm 16:53 Sunny 89 31.7 72 22.2 57 57 ENE 3 6 30.15 1021 10 16 0.00 0.00
5:53 pm 17:53 Sunny 88 31.1 73 22.8 61 61 SE 7 11 30.15 1021 10 16 0.00 0.00
6:53 pm 18:53 Sunny 87 30.6 75 23.9 67 67 SE 3 6 30.15 1021 10 16 0.00 0.00
7:53 pm 19:53 Mostly Sunny 83 28.3 74 23.3 74 74 SSE 5 7 30.15 1021 10 16 0.00 0.00
8:53 pm 20:53 Clear 82 27.8 73 22.8 74 74 S 3 6 30.16 1021 10 16 0.00 0.00
9:46 pm 21:46 Clear with Nearby Thunderstorms 82 27.8 73 22.8 74 74 S 3 6 30.15 1021 10 16 0.00 0.00
9:53 pm 21:53 Clear with Nearby Thunderstorms 81 27.2 73 22.8 77 77 Calm 30.16 1021 10 16 0.00 0.00
10:01 pm 22:01 Clear 81 27.2 73 22.8 77 77 Calm 30.15 1021 10 16 0.00 0.00
10:53 pm 22:53 Mostly Clear 80 26.7 73 22.8 79 79 VRB 3 6 30.17 1022 10 16 0.00 0.00
11:53 pm 23:53 Clear 76 24.4 73 22.8 91 91 Calm 30.16 1022 10 16 0.00 0.00

Powered by AerisWeather